Location: Unspecified
(0.0000°N, 0.0000°E)
Time: 07:20:41
(UTC+00:00)

METEOR M2 - Pass Details

Date: 01 December 2022
Orbit: 818 x 827 km, 98.4° (Epoch: 01 February)

Event Time Altitude Azimuth Distance (km) Brightness Sun altitude
Rises 19:02:11 0° 191° (S) 3,361 ? -16.9°
Reaches altitude 10° 19:04:56 10° 204° (SSW) 2,427 ? -17.5°
Maximum altitude 19:09:12 24° 257° (WSW) 1,631 ? -18.5°
Drops below altitude 10° 19:13:29 10° 311° (NW) 2,421 ? -19.5°
Sets 19:16:14 0° 324° (NW) 3,352 ? -20.1°
